This is the latest recevied weather packets stored in our database for station/object R2AKT-13. If no packets are shown the sender has not sent any weather packets the latest 10 day(s).
| Time | Temp. | Humidity | Pressure | Rain* | Wind** | Luminosity | Snow |
|---|---|---|---|---|---|---|---|
| 1787938726 | 16.67° C | 56% | 1001.6 hPa | - | 0.45 m/s, 146° | - | - |
| 1787938186 | 16.67° C | 54% | 1001.7 hPa | - | 0.45 m/s, 87° | - | - |
| 1787937606 | 16.67° C | 53% | 1001.8 hPa | - | 0.45 m/s, 53° | - | - |
| 1787937026 | 16.67° C | 51% | 1001.8 hPa | - | 0.89 m/s, 61° | - | - |
| 1787936451 | 17.22° C | 49% | 1001.7 hPa | - | 0.45 m/s, 98° | - | - |
| 1787935856 | 17.22° C | 49% | 1001.7 hPa | - | 0 m/s | - | - |
| 1787935316 | 17.22° C | 49% | 1001.6 hPa | - | 0 m/s | - | - |
| 1787934781 | 17.78° C | 48% | 1001.7 hPa | - | 0.45 m/s, 246° | - | - |
| 1787934186 | 17.78° C | 48% | 1001.6 hPa | - | 0.45 m/s, 55° | - | - |
| 1787933631 | 17.78° C | 48% | 1001.7 hPa | - | 0 m/s | - | - |
| 1787933101 | 18.33° C | 47% | 1001.7 hPa | - | 0 m/s | - | - |
| 1787932586 | 18.33° C | 46% | 1001.7 hPa | - | 0.45 m/s, 196° | - | - |
| 1787932061 | 18.89° C | 45% | 1001.5 hPa | - | 0.45 m/s, 200° | - | - |
| 1787931541 | 18.89° C | 46% | 1001.6 hPa | - | 0 m/s | - | - |
| 1787930981 | 19.44° C | 43% | 1001.5 hPa | - | 0.45 m/s, 169° | - | - |
| 1787930496 | 19.44° C | 42% | 1001.6 hPa | - | 0.45 m/s, 227° | - | - |
| 1787929971 | 19.44° C | 43% | 1001.6 hPa | - | 0.45 m/s, 254° | - | - |
| 1787929371 | 19.44° C | 44% | 1001.7 hPa | - | 0.45 m/s, 205° | - | - |
| 1787928876 | 19.44° C | 44% | 1001.7 hPa | - | 0.45 m/s, 208° | - | - |
| 1787928386 | 18.89° C | 45% | 1001.8 hPa | - | 1.34 m/s, 242° | - | - |
| 1787927821 | 20° C | 40% | 1001.8 hPa | - | 0.45 m/s, 261° | - | - |
| 1787927301 | 19.44° C | 42% | 1001.8 hPa | - | 0.45 m/s, 260° | - | - |
| 1787926796 | 18.89° C | 44% | 1001.9 hPa | - | 1.34 m/s, 311° | - | - |
| 1787926211 | 19.44° C | 43% | 1001.9 hPa | - | 0.45 m/s, 160° | - | - |
| 1787925621 | 18.89° C | 45% | 1001.9 hPa | - | 1.34 m/s, 288° | - | - |
* Rain since midnight (hover to see other rain measurements)
** Current wind speed in m/s (hover to see current wind gust speed)